QPF
0.01 0.02 0.01 0.01 0.00 0.01 0.01 0.02 0.04 0.07 0.12 0.15 0.17 0.19 0.26 0.30 0.30 0.29 0.28 0.27 0.23 0.20 0.17 0.13 0.10 0.07 0.05 0.03 0.03 0.02 0.03 0.02 0.02 0.02 0.01 0.01 0.00 0.00 0.00 0.00 0.00 0.00 0.00 0.00
0.01 0.01 0.01 0.02 0.02 0.02 0.03 0.07 0.11 0.14 0.17 0.20 0.19 0.19 0.21 0.24 0.25 0.29 0.29 0.26 0.21 0.18 0.16 0.14 0.12 0.10 0.08 0.07 0.06 0.05 0.04 0.03 0.02 0.01 0.01 0.01 0.00 0.00 0.00 0.00 0.00 0.00 0.00 0.00
0.01 0.01 0.02 0.04 0.05 0.06 0.08 0.11 0.13 0.15 0.19 0.18 0.16 0.15 0.15 0.16 0.18 0.18 0.17 0.18 0.17 0.18 0.16 0.14 0.12 0.09 0.08 0.06 0.05 0.03 0.02 0.02 0.01 0.00 0.00 0.00 0.00 0.00 0.00 0.00 0.00 0.00 0.00 0.00
0.00 0.01 0.04 0.06 0.06 0.09 0.12 0.15 0.13 0.11 0.11 0.10 0.09 0.10 0.10 0.11 0.12 0.13 0.13 0.14 0.14 0.14 0.12 0.10 0.08 0.06 0.04 0.03 0.02 0.01 0.01 0.00 0.00 0.00 0.00 0.00 0.00 0.00 0.00 0.00 0.00 0.00 0.00 0.00
0.00 0.01 0.06 0.07 0.06 0.07 0.12 0.13 0.09 0.06 0.06 0.04 0.04 0.05 0.07 0.09 0.09 0.10 0.11 0.11 0.10 0.09 0.08 0.06 0.04 0.03 0.01 0.01 0.00 0.00 0.00 0.00 0.00 0.01 0.01 0.00 0.00 0.00 0.00 0.00 0.00 0.00 0.00 0.00
0.01 0.02 0.04 0.04 0.03 0.03 0.07 0.10 0.10 0.08 0.06 0.05 0.05 0.06 0.08 0.08 0.07 0.07 0.07 0.07 0.06 0.05 0.04 0.03 0.02 0.01 0.01 0.00 0.00 0.00 0.00 0.00 0.00 0.00 0.00 0.00 0.00 0.00 0.00 0.00 0.00 0.00 0.00 0.00
0.01 0.03 0.05 0.02 0.01 0.02 0.05 0.07 0.08 0.08 0.08 0.07 0.06 0.06 0.07 0.06 0.05 0.05 0.05 0.04 0.03 0.02 0.01 0.01 0.01 0.01 0.00 0.00 0.00 0.00 0.00 0.00 0.00 0.00 0.00 0.00 0.00 0.00 0.00 0.00 0.00 0.00 0.00 0.00
0.01 0.02 0.03 0.01 0.01 0.02 0.03 0.03 0.04 0.03 0.03 0.03 0.03 0.03 0.03 0.02 0.03 0.03 0.03 0.02 0.02 0.01 0.00 0.00 0.01 0.01 0.01 0.01 0.01 0.00 0.00 0.00 0.00 0.00 0.00 0.00 0.00 0.00 0.00 0.00 0.00 0.00 0.00 0.00
0.01 0.02 0.03 0.02 0.01 0.02 0.03 0.02 0.02 0.01 0.01 0.01 0.01 0.01 0.01 0.01 0.02 0.02 0.02 0.01 0.01 0.01 0.01 0.01 0.01 0.01 0.01 0.01 0.01 0.01 0.01 0.01 0.01 0.01 0.00 0.00 0.00 0.00 0.00 0.00 0.00 0.00 0.00 0.00
0.01 0.03 0.04 0.04 0.03 0.02 0.02 0.01 0.00 0.01 0.01 0.00 0.00 0.00 0.00 0.01 0.01 0.01 0.01 0.01 0.01 0.01 0.01 0.01 0.01 0.01 0.01 0.01 0.01 0.01 0.01 0.01 0.02 0.01 0.01 0.00 0.00 0.00 0.00 0.00 0.00 0.00 0.00 0.00
0.02 0.03 0.05 0.05 0.04 0.03 0.02 0.01 0.01 0.01 0.01 0.00 0.00 0.00 0.00 0.00 0.01 0.01 0.01 0.01 0.01 0.01 0.01 0.01 0.01 0.01 0.00 0.00 0.01 0.01 0.01 0.01 0.01 0.01 0.01 0.01 0.01 0.01 0.00 0.00 0.00 0.00 0.00 0.00
0.01 0.02 0.03 0.03 0.03 0.02 0.02 0.01 0.01 0.01 0.00 0.00 0.00 0.00 0.00 0.00 0.00 0.00 0.00 0.00 0.00 0.00 0.00 0.00 0.00 0.00 0.00 0.00 0.00 0.00 0.01 0.01 0.01 0.01 0.02 0.02 0.02 0.01 0.00 0.00 0.00 0.00 0.00 0.00
0.00 0.00 0.00 0.01 0.01 0.02 0.02 0.01 0.01 0.01 0.00 0.00 0.00 0.00 0.00 0.00 0.00 0.00 0.00 0.00 0.00 0.00 0.00 0.00 0.00 0.00 0.00 0.00 0.00 0.00 0.01 0.01 0.01 0.02 0.02 0.02 0.03 0.03 0.02 0.00 0.00 0.00 0.00 0.00
0.00 0.00 0.01 0.01 0.01 0.01 0.02 0.01 0.01 0.01 0.00 0.00 0.00 0.00 0.00 0.00 0.00 0.00 0.00 0.00 0.00 0.00 0.00 0.00 0.00 0.00 0.00 0.00 0.00 0.00 0.01 0.01 0.01 0.01 0.01 0.02 0.02 0.02 0.02 0.01 0.00 0.00 0.00 0.01
0.01 0.00 0.00 0.00 0.01 0.01 0.02 0.01 0.01 0.01 0.01 0.00 0.00 0.00 0.00 0.00 0.00 0.00 0.00 0.00 0.00 0.00 0.00 0.00 0.00 0.00 0.00 0.00 0.00 0.00 0.00 0.00 0.00 0.00 0.01 0.01 0.02 0.02 0.01 0.00 0.00 0.00 0.01 0.01
0.00 0.00 0.00 0.00 0.01 0.02 0.02 0.01 0.01 0.01 0.00 0.00 0.00 0.00 0.00 0.00 0.00 0.00 0.00 0.00 0.00 0.00 0.00 0.00 0.00 0.00 0.00 0.00 0.00 0.00 0.00 0.00 0.00 0.00 0.01 0.01 0.01 0.00 0.00 0.00 0.00 0.01 0.01 0.02
0.00 0.00 0.00 0.01 0.01 0.01 0.02 0.01 0.00 0.00 0.00 0.00 0.00 0.00 0.00 0.00 0.00 0.00 0.00 0.00 0.00 0.00 0.00 0.00 0.00 0.00 0.00 0.00 0.00 0.00 0.00 0.00 0.00 0.00 0.00 0.00 0.00 0.00 0.00 0.00 0.00 0.01 0.01 0.01
0.00 0.00 0.00 0.00 0.00 0.01 0.01 0.00 0.00 0.00 0.00 0.00 0.00 0.00 0.00 0.00 0.00 0.00 0.00 0.00 0.00 0.00 0.00 0.00 0.00 0.00 0.00 0.00 0.00 0.00 0.00 0.00 0.00 0.01 0.00 0.00 0.00 0.00 0.00 0.00 0.00 0.01 0.01 0.01
0.00 0.00 0.00 0.00 0.00 0.00 0.00 0.00 0.00 0.00 0.00 0.00 0.00 0.00 0.00 0.00 0.00 0.00 0.00 0.00 0.00 0.00 0.00 0.00 0.00 0.00 0.00 0.00 0.00 0.00 0.00 0.00 0.00 0.00 0.00 0.00 0.00 0.00 0.00 0.00 0.00 0.00 0.01 0.01
0.00 0.00 0.00 0.00 0.00 0.00 0.00 0.00 0.00 0.00 0.00 0.00 0.00 0.00 0.00 0.00 0.00 0.00 0.00 0.00 0.00 0.00 0.00 0.00 0.00 0.00 0.00 0.00 0.00 0.00 0.00 0.00 0.00 0.00 0.00 0.00 0.00 0.00 0.00 0.00 0.00 0.00 0.01 0.01
0.00 0.00 0.00 0.00 0.00 0.00 0.00 0.00 0.00 0.00 0.00 0.00 0.00 0.00 0.00 0.00 0.00 0.00 0.00 0.00 0.00 0.00 0.00 0.00 0.00 0.00 0.00 0.00 0.00 0.00 0.00 0.00 0.00 0.00 0.00 0.00 0.00 0.00 0.00 0.00 0.00 0.00 0.00 0.00
0.00 0.00 0.00 0.00 0.00 0.00 0.00 0.00 0.00 0.00 0.00 0.00 0.00 0.00 0.00 0.00 0.00 0.00 0.00 0.00 0.00 0.00 0.00 0.00 0.00 0.00 0.00 0.00 0.00 0.00 0.00 0.00 0.00 0.00 0.00 0.00 0.00 0.00 0.00 0.00 0.00 0.00 0.00 0.00
0.00 0.00 0.00 0.00 0.00 0.00 0.00 0.00 0.00 0.00 0.00 0.00 0.00 0.00 0.00 0.00 0.00 0.00 0.00 0.00 0.00 0.00 0.00 0.00 0.00 0.00 0.00 0.00 0.00 0.00 0.00 0.00 0.00 0.00 0.00 0.00 0.00 0.00 0.00 0.00 0.00 0.00 0.00 0.00
0.00 0.00 0.00 0.00 0.00 0.00 0.00 0.00 0.00 0.00 0.00 0.00 0.00 0.00 0.00 0.00 0.00 0.00 0.00 0.00 0.00 0.00 0.00 0.00 0.00 0.00 0.00 0.00 0.00 0.00 0.00 0.00 0.00 0.00 0.00 0.00 0.00 0.00 0.00 0.00 0.00 0.00 0.00 0.00
0.00 0.00 0.00 0.00 0.00 0.00 0.00 0.00 0.00 0.00 0.00 0.00 0.00 0.00 0.00 0.00 0.00 0.00 0.00 0.00 0.00 0.00 0.00 0.00 0.00 0.00 0.00 0.00 0.00 0.00 0.00 0.00 0.00 0.00 0.00 0.00 0.00 0.00 0.00 0.00 0.00 0.00 0.00 0.00
0.00 0.00 0.00 0.00 0.00 0.00 0.00 0.00 0.00 0.00 0.00 0.00 0.00 0.00 0.00 0.00 0.00 0.00 0.00 0.00 0.00 0.00 0.00 0.00 0.00 0.00 0.00 0.00 0.00 0.00 0.00 0.00 0.00 0.00 0.00 0.00 0.00 0.00 0.00 0.00 0.00 0.00 0.00 0.00
0.00 0.00 0.00 0.00 0.00 0.00 0.00 0.00 0.00 0.00 0.00 0.00 0.00 0.00 0.00 0.00 0.00 0.00 0.00 0.00 0.00 0.00 0.00 0.00 0.00 0.00 0.00 0.00 0.00 0.00 0.00 0.00 0.00 0.00 0.00 0.00 0.00 0.00 0.00 0.00 0.00 0.00 0.00 0.00
MSLP
1014.02 1014.38 1014.68 1014.91 1015.09 1015.22 1015.33 1015.46 1015.62 1015.83 1016.11 1016.45 1016.84 1017.27 1017.72 1018.17 1018.59 1018.99 1019.35 1019.68 1020.00 1020.31 1020.63 1020.97 1021.33 1021.70 1022.07 1022.43 1022.75 1023.03 1023.26 1023.44 1023.57 1023.68 1023.80 1023.92 1024.09 1024.29 1024.53 1024.80 1025.07 1025.33 1025.54 1025.70
1014.78 1015.15 1015.42 1015.60 1015.69 1015.73 1015.76 1015.81 1015.93 1016.13 1016.43 1016.82 1017.29 1017.80 1018.32 1018.83 1019.31 1019.74 1020.12 1020.47 1020.79 1021.10 1021.42 1021.76 1022.12 1022.48 1022.84 1023.17 1023.47 1023.71 1023.90 1024.04 1024.14 1024.23 1024.32 1024.44 1024.60 1024.79 1025.01 1025.25 1025.48 1025.69 1025.85 1025.94
1015.43 1015.80 1016.04 1016.18 1016.22 1016.21 1016.20 1016.23 1016.35 1016.58 1016.93 1017.38 1017.91 1018.48 1019.06 1019.62 1020.12 1020.56 1020.94 1021.28 1021.58 1021.87 1022.17 1022.50 1022.83 1023.18 1023.51 1023.82 1024.08 1024.29 1024.44 1024.55 1024.63 1024.70 1024.77 1024.88 1025.01 1025.18 1025.38 1025.58 1025.76 1025.91 1026.01 1026.05
1015.99 1016.33 1016.55 1016.65 1016.67 1016.65 1016.65 1016.71 1016.86 1017.14 1017.55 1018.06 1018.65 1019.27 1019.89 1020.46 1020.96 1021.39 1021.75 1022.05 1022.32 1022.58 1022.86 1023.15 1023.46 1023.78 1024.08 1024.36 1024.59 1024.77 1024.90 1024.98 1025.03 1025.08 1025.14 1025.22 1025.34 1025.48 1025.64 1025.80 1025.93 1026.03 1026.07 1026.06
1016.46 1016.76 1016.94 1017.03 1017.06 1017.06 1017.09 1017.20 1017.43 1017.77 1018.24 1018.81 1019.45 1020.10 1020.72 1021.28 1021.77 1022.16 1022.48 1022.74 1022.97 1023.20 1023.44 1023.70 1023.98 1024.27 1024.55 1024.80 1025.01 1025.16 1025.26 1025.32 1025.35 1025.39 1025.43 1025.50 1025.59 1025.71 1025.83 1025.95 1026.04 1026.08 1026.08 1026.02
1016.84 1017.09 1017.25 1017.33 1017.38 1017.42 1017.52 1017.70 1018.00 1018.42 1018.96 1019.57 1020.23 1020.89 1021.50 1022.04 1022.48 1022.83 1023.10 1023.32 1023.51 1023.70 1023.91 1024.14 1024.40 1024.67 1024.92 1025.15 1025.33 1025.46 1025.54 1025.58 1025.61 1025.63 1025.66 1025.71 1025.79 1025.89 1025.98 1026.07 1026.12 1026.13 1026.09 1026.00
1017.11 1017.32 1017.46 1017.55 1017.63 1017.73 1017.91 1018.17 1018.56 1019.05 1019.64 1020.29 1020.96 1021.61 1022.19 1022.69 1023.08 1023.38 1023.61 1023.78 1023.94 1024.10 1024.28 1024.49 1024.73 1024.97 1025.20 1025.41 1025.57 1025.68 1025.75 1025.78 1025.79 1025.80 1025.83 1025.88 1025.95 1026.03 1026.11 1026.17 1026.20 1026.19 1026.13 1026.03
1017.27 1017.44 1017.57 1017.68 1017.81 1017.99 1018.24 1018.60 1019.06 1019.62 1020.25 1020.93 1021.60 1022.22 1022.77 1023.22 1023.57 1023.82 1024.00 1024.13 1024.26 1024.39 1024.56 1024.75 1024.96 1025.19 1025.40 1025.59 1025.73 1025.82 1025.88 1025.90 1025.91 1025.92 1025.94 1025.99 1026.06 1026.14 1026.21 1026.27 1026.30 1026.28 1026.21 1026.10
1017.30 1017.45 1017.58 1017.73 1017.92 1018.18 1018.52 1018.96 1019.50 1020.11 1020.78 1021.47 1022.12 1022.72 1023.23 1023.63 1023.93 1024.14 1024.29 1024.39 1024.49 1024.61 1024.76 1024.93 1025.13 1025.33 1025.53 1025.69 1025.81 1025.89 1025.93 1025.94 1025.95 1025.96 1025.99 1026.04 1026.11 1026.20 1026.28 1026.35 1026.38 1026.36 1026.30 1026.19
1017.19 1017.34 1017.50 1017.71 1017.97 1018.30 1018.73 1019.25 1019.86 1020.52 1021.21 1021.90 1022.54 1023.10 1023.57 1023.93 1024.20 1024.37 1024.49 1024.58 1024.66 1024.76 1024.89 1025.05 1025.22 1025.41 1025.57 1025.71 1025.81 1025.87 1025.90 1025.91 1025.91 1025.92 1025.96 1026.02 1026.10 1026.20 1026.29 1026.37 1026.41 1026.41 1026.36 1026.25
1016.97 1017.14 1017.35 1017.62 1017.96 1018.38 1018.89 1019.48 1020.14 1020.83 1021.54 1022.22 1022.84 1023.38 1023.82 1024.15 1024.38 1024.53 1024.63 1024.70 1024.77 1024.86 1024.97 1025.11 1025.25 1025.41 1025.55 1025.65 1025.73 1025.77 1025.79 1025.79 1025.79 1025.81 1025.84 1025.92 1026.01 1026.12 1026.23 1026.32 1026.38 1026.39 1026.35 1026.26
1016.67 1016.88 1017.16 1017.49 1017.91 1018.41 1019.00 1019.65 1020.34 1021.07 1021.78 1022.45 1023.06 1023.57 1023.98 1024.29 1024.50 1024.64 1024.72 1024.78 1024.84 1024.91 1025.01 1025.11 1025.23 1025.35 1025.46 1025.53 1025.58 1025.60 1025.61 1025.60 1025.60 1025.62 1025.67 1025.75 1025.85 1025.97 1026.09 1026.20 1026.27 1026.30 1026.27 1026.19
1016.35 1016.62 1016.96 1017.37 1017.87 1018.44 1019.08 1019.77 1020.50 1021.24 1021.95 1022.61 1023.20 1023.69 1024.08 1024.37 1024.57 1024.71 1024.79 1024.84 1024.89 1024.94 1025.01 1025.09 1025.17 1025.26 1025.32 1025.37 1025.39 1025.40 1025.39 1025.38 1025.38 1025.41 1025.47 1025.55 1025.66 1025.79 1025.92 1026.03 1026.11 1026.14 1026.13 1026.05
1016.07 1016.40 1016.80 1017.28 1017.84 1018.47 1019.15 1019.88 1020.62 1021.36 1022.06 1022.71 1023.28 1023.76 1024.14 1024.43 1024.63 1024.76 1024.84 1024.90 1024.93 1024.97 1025.01 1025.06 1025.10 1025.15 1025.18 1025.20 1025.20 1025.19 1025.17 1025.17 1025.17 1025.21 1025.27 1025.36 1025.48 1025.61 1025.74 1025.85 1025.93 1025.97 1025.96 1025.89
1015.86 1016.24 1016.71 1017.24 1017.85 1018.52 1019.23 1019.97 1020.71 1021.44 1022.14 1022.77 1023.33 1023.80 1024.18 1024.47 1024.68 1024.82 1024.91 1024.96 1024.99 1025.01 1025.02 1025.03 1025.04 1025.05 1025.05 1025.04 1025.02 1025.00 1024.99 1024.99 1025.01 1025.05 1025.13 1025.23 1025.35 1025.48 1025.61 1025.72 1025.80 1025.84 1025.83 1025.76
1015.73 1016.17 1016.69 1017.27 1017.91 1018.60 1019.32 1020.06 1020.79 1021.51 1022.19 1022.81 1023.36 1023.83 1024.22 1024.52 1024.74 1024.90 1024.99 1025.05 1025.07 1025.07 1025.06 1025.04 1025.02 1024.99 1024.96 1024.93 1024.90 1024.87 1024.87 1024.87 1024.91 1024.97 1025.06 1025.17 1025.30 1025.43 1025.56 1025.67 1025.74 1025.78 1025.77 1025.71
1015.70 1016.19 1016.74 1017.35 1018.01 1018.71 1019.42 1020.14 1020.86 1021.56 1022.22 1022.83 1023.37 1023.85 1024.25 1024.57 1024.81 1024.99 1025.10 1025.16 1025.18 1025.17 1025.14 1025.09 1025.04 1024.98 1024.92 1024.87 1024.83 1024.81 1024.81 1024.84 1024.89 1024.97 1025.08 1025.21 1025.35 1025.48 1025.61 1025.72 1025.79 1025.83 1025.81 1025.76
1015.75 1016.27 1016.86 1017.49 1018.15 1018.84 1019.53 1020.23 1020.92 1021.59 1022.23 1022.83 1023.38 1023.86 1024.27 1024.62 1024.89 1025.08 1025.21 1025.29 1025.31 1025.29 1025.24 1025.17 1025.09 1025.01 1024.93 1024.87 1024.83 1024.81 1024.83 1024.87 1024.95 1025.05 1025.18 1025.32 1025.47 1025.61 1025.75 1025.85 1025.93 1025.96 1025.96 1025.91
1015.87 1016.42 1017.03 1017.66 1018.32 1018.98 1019.65 1020.32 1020.97 1021.62 1022.23 1022.82 1023.36 1023.85 1024.29 1024.65 1024.94 1025.17 1025.32 1025.40 1025.43 1025.40 1025.34 1025.26 1025.16 1025.06 1024.98 1024.91 1024.87 1024.86 1024.89 1024.95 1025.05 1025.17 1025.32 1025.48 1025.64 1025.80 1025.94 1026.05 1026.13 1026.17 1026.17 1026.13
1016.04 1016.62 1017.24 1017.87 1018.51 1019.15 1019.78 1020.41 1021.03 1021.63 1022.22 1022.79 1023.33 1023.82 1024.27 1024.65 1024.97 1025.21 1025.38 1025.48 1025.51 1025.49 1025.43 1025.33 1025.23 1025.12 1025.03 1024.96 1024.93 1024.93 1024.97 1025.05 1025.17 1025.32 1025.48 1025.66 1025.83 1026.00 1026.15 1026.27 1026.36 1026.41 1026.42 1026.39
1016.26 1016.87 1017.49 1018.12 1018.73 1019.33 1019.93 1020.51 1021.08 1021.65 1022.21 1022.75 1023.28 1023.77 1024.22 1024.61 1024.94 1025.20 1025.39 1025.50 1025.54 1025.53 1025.47 1025.38 1025.27 1025.17 1025.08 1025.02 1025.00 1025.01 1025.07 1025.17 1025.30 1025.47 1025.65 1025.84 1026.02 1026.20 1026.36 1026.49 1026.59 1026.65 1026.68 1026.66
1016.53 1017.15 1017.78 1018.38 1018.97 1019.54 1020.08 1020.62 1021.15 1021.67 1022.19 1022.71 1023.21 1023.68 1024.12 1024.52 1024.85 1025.12 1025.32 1025.44 1025.50 1025.49 1025.45 1025.37 1025.28 1025.19 1025.12 1025.08 1025.07 1025.11 1025.18 1025.30 1025.44 1025.62 1025.81 1026.01 1026.20 1026.39 1026.55 1026.69 1026.80 1026.88 1026.92 1026.92
1016.82 1017.46 1018.08 1018.67 1019.23 1019.75 1020.25 1020.74 1021.22 1021.70 1022.17 1022.65 1023.12 1023.57 1024.00 1024.38 1024.71 1024.98 1025.18 1025.31 1025.38 1025.40 1025.37 1025.32 1025.25 1025.19 1025.15 1025.13 1025.16 1025.21 1025.31 1025.44 1025.60 1025.79 1025.99 1026.19 1026.39 1026.57 1026.74 1026.89 1027.01 1027.10 1027.16 1027.18
1017.13 1017.78 1018.38 1018.95 1019.47 1019.96 1020.42 1020.86 1021.29 1021.72 1022.16 1022.59 1023.02 1023.44 1023.84 1024.20 1024.52 1024.78 1024.98 1025.12 1025.21 1025.25 1025.25 1025.24 1025.21 1025.19 1025.19 1025.21 1025.26 1025.35 1025.48 1025.63 1025.80 1025.99 1026.19 1026.39 1026.59 1026.77 1026.94 1027.09 1027.22 1027.32 1027.40 1027.44
1017.41 1018.05 1018.64 1019.19 1019.68 1020.13 1020.55 1020.96 1021.35 1021.74 1022.13 1022.52 1022.91 1023.30 1023.66 1024.00 1024.29 1024.54 1024.75 1024.90 1025.00 1025.07 1025.11 1025.14 1025.16 1025.19 1025.24 1025.31 1025.41 1025.53 1025.68 1025.85 1026.04 1026.23 1026.43 1026.63 1026.81 1026.99 1027.16 1027.31 1027.44 1027.56 1027.65 1027.71
1017.61 1018.24 1018.81 1019.33 1019.80 1020.23 1020.62 1021.00 1021.36 1021.71 1022.07 1022.43 1022.79 1023.13 1023.47 1023.77 1024.05 1024.29 1024.49 1024.65 1024.78 1024.89 1024.97 1025.05 1025.12 1025.21 1025.31 1025.44 1025.58 1025.74 1025.92 1026.11 1026.30 1026.50 1026.69 1026.88 1027.06 1027.23 1027.39 1027.53 1027.67 1027.80 1027.90 1027.99
1017.68 1018.28 1018.84 1019.34 1019.79 1020.21 1020.59 1020.95 1021.29 1021.63 1021.97 1022.30 1022.63 1022.95 1023.26 1023.54 1023.80 1024.03 1024.24 1024.41 1024.57 1024.70 1024.83 1024.96 1025.10 1025.24 1025.40 1025.58 1025.77 1025.96 1026.17 1026.37 1026.57 1026.77 1026.95 1027.13 1027.29 1027.45 1027.60 1027.75 1027.89 1028.02 1028.14 1028.25
Thickness
5651 5657 5655 5651 5653 5655 5650 5646 5638 5635 5633 5627 5624 5620 5614 5610 5606 5603 5599 5597 5594 5590 5586 5583 5580 5577 5575 5572 5570 5568 5565 5561 5556 5552 5549 5544 5540 5535 5531 5527 5521 5516 5510 5505
5643 5650 5646 5638 5640 5641 5639 5638 5633 5628 5619 5617 5613 5609 5604 5600 5596 5591 5587 5583 5580 5576 5572 5568 5565 5562 5560 5557 5553 5551 5547 5543 5538 5534 5530 5526 5521 5517 5513 5508 5503 5498 5492 5487
5626 5639 5635 5614 5619 5625 5621 5622 5622 5616 5611 5605 5600 5596 5592 5588 5584 5580 5575 5570 5565 5561 5557 5553 5549 5547 5544 5541 5538 5534 5530 5526 5521 5517 5512 5508 5505 5499 5494 5489 5485 5480 5476 5471
5617 5619 5598 5603 5618 5618 5611 5606 5609 5606 5600 5595 5589 5583 5578 5576 5572 5567 5561 5556 5552 5548 5544 5540 5537 5533 5530 5527 5524 5519 5515 5510 5506 5501 5497 5492 5487 5482 5477 5473 5469 5465 5461 5456
5605 5601 5599 5606 5612 5611 5602 5593 5595 5592 5586 5580 5575 5571 5564 5560 5558 5554 5549 5544 5540 5536 5532 5528 5525 5521 5518 5513 5509 5505 5500 5496 5492 5487 5482 5477 5471 5466 5462 5457 5454 5450 5446 5442
5603 5596 5588 5595 5609 5612 5601 5582 5584 5583 5577 5572 5570 5562 5554 5549 5546 5542 5537 5533 5529 5525 5521 5517 5513 5509 5505 5500 5496 5492 5488 5484 5479 5474 5468 5462 5457 5452 5448 5444 5440 5437 5433 5429
5595 5588 5588 5599 5607 5605 5585 5578 5578 5574 5570 5565 5561 5555 5547 5540 5536 5532 5528 5523 5519 5514 5510 5506 5502 5498 5493 5489 5485 5481 5477 5472 5466 5460 5455 5450 5445 5440 5435 5431 5427 5423 5420 5416
5587 5578 5578 5596 5597 5586 5578 5577 5572 5566 5560 5554 5548 5543 5537 5532 5527 5522 5518 5513 5509 5504 5499 5496 5493 5488 5483 5479 5475 5471 5467 5461 5455 5450 5445 5440 5433 5428 5423 5418 5413 5409 5405 5402
5585 5579 5584 5589 5586 5582 5577 5570 5564 5557 5551 5547 5541 5534 5528 5522 5517 5513 5509 5504 5500 5496 5492 5488 5485 5480 5475 5471 5467 5463 5457 5451 5445 5440 5434 5429 5422 5417 5411 5405 5400 5396 5393 5390
5584 5582 5583 5581 5578 5574 5570 5564 5558 5551 5544 5539 5532 5525 5519 5514 5508 5504 5501 5497 5493 5489 5484 5480 5476 5473 5469 5465 5461 5455 5449 5442 5436 5430 5424 5419 5413 5408 5402 5397 5393 5389 5385 5383
5580 5578 5576 5573 5571 5567 5562 5556 5549 5543 5537 5530 5524 5518 5512 5507 5502 5498 5495 5490 5486 5481 5476 5473 5470 5466 5463 5459 5454 5448 5442 5436 5429 5423 5417 5412 5407 5402 5399 5395 5390 5386 5383 5380
5579 5580 5572 5567 5566 5563 5556 5549 5543 5537 5529 5523 5519 5512 5507 5501 5497 5493 5489 5485 5480 5476 5472 5468 5465 5461 5458 5454 5449 5443 5436 5430 5424 5418 5413 5408 5403 5398 5396 5393 5390 5387 5384 5381
5590 5584 5576 5569 5563 5558 5551 5544 5538 5532 5525 5518 5513 5509 5503 5497 5493 5489 5485 5481 5476 5472 5468 5464 5461 5457 5455 5451 5447 5440 5433 5428 5422 5417 5412 5407 5402 5398 5393 5391 5389 5387 5385 5383
5590 5582 5570 5564 5557 5552 5547 5540 5534 5527 5521 5515 5510 5505 5499 5494 5490 5485 5481 5477 5473 5469 5465 5461 5458 5454 5452 5449 5445 5439 5433 5428 5423 5417 5413 5409 5405 5400 5396 5392 5389 5387 5387 5386
5585 5578 5568 5560 5553 5547 5541 5535 5528 5521 5516 5511 5506 5501 5496 5491 5486 5482 5478 5475 5470 5466 5462 5459 5455 5452 5450 5447 5443 5439 5434 5429 5424 5420 5415 5411 5407 5403 5399 5396 5392 5390 5389 5390
5579 5572 5564 5556 5548 5542 5536 5530 5524 5518 5514 5509 5504 5499 5494 5489 5484 5480 5476 5472 5467 5462 5459 5456 5453 5450 5449 5446 5442 5438 5435 5432 5427 5422 5417 5413 5409 5405 5402 5399 5396 5394 5392 5392
5574 5565 5558 5551 5545 5539 5533 5528 5523 5518 5513 5507 5502 5498 5493 5487 5482 5477 5474 5470 5466 5462 5458 5455 5452 5450 5447 5445 5441 5438 5435 5432 5430 5424 5420 5416 5412 5408 5405 5402 5399 5397 5396 5396
5580 5571 5563 5555 5547 5539 5533 5528 5523 5518 5512 5508 5503 5497 5491 5485 5480 5476 5473 5468 5464 5460 5457 5455 5452 5449 5447 5444 5441 5439 5436 5433 5429 5425 5421 5418 5414 5411 5408 5405 5403 5401 5400 5400
5577 5569 5561 5554 5547 5540 5534 5528 5522 5517 5513 5508 5502 5496 5491 5486 5482 5477 5472 5468 5463 5459 5456 5454 5452 5449 5446 5443 5442 5439 5437 5434 5430 5426 5422 5420 5416 5413 5410 5407 5405 5404 5403 5403
5574 5567 5560 5553 5546 5540 5533 5527 5522 5517 5512 5507 5502 5496 5491 5487 5482 5477 5472 5467 5462 5459 5457 5454 5450 5447 5444 5442 5441 5439 5437 5434 5429 5425 5422 5419 5416 5414 5412 5410 5408 5406 5405 5405
5571 5564 5557 5551 5544 5538 5533 5527 5521 5516 5511 5507 5502 5496 5492 5487 5483 5477 5471 5466 5464 5462 5458 5454 5449 5446 5443 5442 5442 5439 5436 5433 5429 5425 5423 5420 5417 5415 5413 5411 5410 5409 5408 5407
5567 5561 5554 5548 5542 5535 5531 5526 5521 5517 5511 5507 5503 5498 5493 5487 5483 5478 5474 5469 5466 5464 5459 5454 5449 5447 5445 5443 5442 5439 5436 5433 5429 5425 5423 5420 5418 5416 5414 5413 5411 5410 5410 5409
5565 5558 5552 5546 5540 5534 5529 5525 5521 5517 5512 5508 5504 5499 5494 5489 5484 5479 5474 5471 5469 5465 5460 5455 5452 5449 5447 5444 5441 5439 5436 5433 5430 5426 5424 5422 5420 5418 5416 5415 5413 5412 5411 5411
5562 5555 5549 5543 5538 5532 5526 5523 5520 5517 5513 5510 5506 5502 5497 5491 5486 5483 5480 5477 5473 5468 5463 5459 5455 5452 5448 5445 5442 5439 5437 5434 5431 5428 5426 5424 5422 5420 5418 5416 5415 5414 5413 5412
5559 5552 5546 5540 5535 5530 5525 5522 5519 5516 5513 5509 5507 5503 5500 5497 5492 5487 5483 5480 5477 5472 5468 5464 5460 5455 5451 5447 5443 5440 5438 5436 5434 5431 5428 5426 5424 5422 5420 5419 5417 5416 5414 5413
5555 5549 5544 5539 5534 5528 5525 5521 5516 5514 5511 5508 5506 5504 5501 5499 5496 5491 5487 5484 5481 5476 5472 5468 5464 5460 5455 5451 5447 5444 5442 5440 5437 5434 5432 5429 5427 5425 5423 5421 5420 5418 5417 5415
5551 5546 5540 5536 5532 5529 5525 5521 5518 5515 5512 5510 5508 5505 5503 5500 5497 5494 5491 5488 5484 5480 5476 5473 5469 5465 5460 5456 5452 5449 5446 5444 5441 5438 5435 5433 5430 5428 5426 5425 5423 5421 5420 5418